Powrót do katalogu

STARLINK-37770

AktywnyŁącznośćSSO
NORAD 69225·PAYLOAD·🇺🇸 United States

Wystrzelony May 26, 2026 z Vandenberg Space Force Base

Loading…

Następne Przeloty (najbliższe 24 godziny)

TLE

ŚwieżeSource: CelesTrak SupGP

Epoka: Sep 14, 2026, 14:31 UTC

1 69225C 26115Q   26257.60534722 -.00033854  00000+0 -10508-2 0  2577
2 69225  97.2833 273.8045 0001752  99.9336  66.8523 15.33460675    12

Śledź STARLINK-37770 w czasie rzeczywistym z AllMySat

Download on the App Store